Home   Weather   Riga   Past weeks
Flag for Latvia

Past Weather in Riga, Latvia — Yesterday and Last 2 Weeks

Now
59 °F

Clear.


Feels Like: 58 °F
Forecast: 52 / 40 °F
Wind: 8 mph from Southwest

Location: Riga Airport

Current Time: Oct 20, 2019 at 10:16:42 pm

Latest Report: Oct 20, 2019 at 9:20 pm


Visibility: 10 mi

Pressure: 29.92 "Hg

Humidity: 88%

Dew Point: 55 °F

Location of RigaLocation

Past Weather in Riga — Graph

°F

Riga Temperature Yesterday

Maximum temperature yesterday: 57 °F (at 2:20 pm)
Minimum temperature yesterday: 48 °F (at 10:50 pm)
Average temperature yesterday: 54 °F

High & Low Weather Summary for the Past Weeks

 TemperatureHumidityPressure
High64 °F (Oct 14, 12:20 pm)100% (Oct 5, 11:20 pm)30.12 "Hg (Oct 5, 11:20 pm)
Low32 °F (Oct 6, 2:20 am)64% (Oct 14, 1:50 pm)29.39 "Hg (Oct 12, 7:50 am)
Average49 °F91%29.81 "Hg
* Reported Oct 5 8:20 pm — Oct 20 8:50 pm, Riga. Weather by CustomWeather, © 2019

Note: Actual official high and low records may vary slightly from our data, if they occured in-between our weather recording intervals... More about our weather records

Advertising

Riga Weather History for the Previous 24 Hours

Scroll right to see more
 ConditionsComfort  
Time TempWeatherWind HumidityBarometerVisibility
8:50 pm
Sun, Oct 20
59 °FClear.8 mph88%29.92 "Hg10 mi
8:20 pm59 °FClear.8 mph88%29.92 "Hg10 mi
7:50 pm59 °FClear.10 mph82%29.92 "Hg10 mi
7:20 pm59 °FPassing clouds.9 mph82%29.92 "HgN/A
6:50 pm59 °FClear.8 mph82%29.92 "Hg10 mi
6:20 pm59 °FClear.9 mph88%29.92 "Hg10 mi
5:50 pm59 °FSunny.9 mph88%29.92 "Hg10 mi
5:20 pm59 °FSunny.7 mph88%29.92 "Hg10 mi
4:50 pm61 °FSunny.9 mph83%29.92 "Hg10 mi
4:20 pm61 °FSunny.9 mph83%29.92 "Hg10 mi
3:50 pm61 °FSunny.10 mph77%29.92 "Hg10 mi
3:20 pm61 °FSunny.8 mph77%29.92 "Hg10 mi
2:50 pm59 °FSunny.9 mph77%29.92 "Hg10 mi
2:20 pm59 °FPassing clouds.8 mph77%29.95 "HgN/A
1:50 pm59 °FSunny.8 mph77%29.95 "Hg10 mi
1:20 pm59 °FSunny.6 mph77%29.95 "Hg10 mi
12:50 pm57 °FSunny.7 mph82%29.98 "Hg10 mi
12:20 pm55 °FSunny.7 mph88%29.98 "Hg10 mi
11:50 am55 °FPassing clouds.6 mph88%29.98 "HgN/A
11:20 am54 °FPassing clouds.6 mph88%29.98 "HgN/A
10:50 am52 °FPassing clouds.3 mph100%29.98 "HgN/A
10:20 am50 °FSunny.5 mph100%29.98 "Hg10 mi
9:50 am48 °FSunny.2 mph100%29.98 "Hg10 mi
9:20 am46 °FSunny.1 mph100%29.98 "Hg10 mi
8:50 am46 °FSunny.2 mph100%29.98 "Hg10 mi
8:20 am45 °FClear.1 mph100%29.98 "HgN/A
7:50 am45 °FClear.2 mph100%29.98 "Hg10 mi
7:20 am43 °FPassing clouds.2 mph100%29.98 "Hg6 mi
6:50 am43 °FLight fog.No wind100%29.98 "Hg1 mi
6:20 am41 °FFog.No wind100%29.98 "Hg1 mi
5:50 am45 °FPartly cloudy.2 mph100%29.98 "HgN/A
5:20 am45 °FPartly cloudy.1 mph100%29.98 "HgN/A
4:50 am45 °FPassing clouds.5 mph100%29.98 "Hg6 mi
4:20 am41 °FFog.1 mph100%29.98 "Hg1 mi
3:50 am43 °FFog.No wind100%29.98 "Hg1 mi
3:20 am43 °FFog.No wind100%29.98 "Hg1 mi
2:50 am46 °FLight fog.No wind100%29.98 "Hg1 mi
2:20 am46 °FPassing clouds.3 mph100%29.98 "HgN/A
1:50 am46 °FClear.5 mph100%29.98 "Hg10 mi
1:20 am45 °FFog.1 mph100%29.98 "Hg2 mi
12:50 am46 °FFog.2 mph100%29.98 "Hg3 mi
12:20 am46 °FFog.1 mph100%29.98 "Hg3 mi
11:20 pm
Sat, Oct 19
48 °FClear.3 mph100%29.98 "Hg10 mi
10:50 pm48 °FClear.2 mph94%29.95 "Hg10 mi
10:20 pm50 °FClear.3 mph94%29.95 "Hg10 mi
Weather by CustomWeather, © 2019

See weather overview